Flag for Germany Weather past 2 weeks in Vechta, Lower Saxony, Germany

Now
55 °F

Partly cloudy.


Feels Like: 51 °F
Forecast: 50 / 64 °F
Wind: 18 mph from West

Location: Bremen Airport

Current Time: Jul 30, 2015 at 3:00:18 AM

Latest Report: Jul 30, 2015 at 2:20 AM


Visibility: N/A

Pressure: 29.74 "Hg

Humidity: 88%

Dew point: 52 °F

Location of VechtaLocation

Historic Weather in Vechta — Graph

°F

Vechta temperature yesterday

Maximum temperature yesterday: 61 °F (at 10:20 AM)
Minimum temperature yesterday: 52 °F (at 11:20 AM)
Average temperature yesterday: 57 °F

Past Weeks' High & Low Weather Summary

 TemperatureHumidityPressure
High88 °F (Jul 17, 2:20 PM)100% (Jul 15, 1:50 AM)30.12 "Hg (Jul 15, 1:50 AM)
Low50 °F (Jul 20, 3:50 AM)35% (Jul 17, 4:20 PM)29.42 "Hg (Jul 25, 12:20 PM)
Average64 °F77%29.83 "Hg
* Reported Jul 15 1:20 AM — Jul 30 1:50 AM, Vechta, Weather by CustomWeather, © 2015

Note: Actual official high and low records may vary slightly from our data, if they occured in-between our weather recording intervals... More about our weather records

Advertising

Vechta weather history for previous 24 hours

 ConditionsComfort  
Time TempWeatherWind HumidityBarometerVisibility
1:50 AM
Thu, Jul 30
55 °FPartly cloudy.20 mph88%29.74 "HgN/A
1:20 AM55 °FPassing clouds.20 mph88%29.74 "HgN/A
12:50 AM55 °FPartly cloudy.16 mph88%29.74 "HgN/A
12:20 AM55 °FLight rain. Passing clouds.20 mph88%29.71 "HgN/A
11:50 PM
Wed, Jul 29
55 °FPassing clouds.20 mph88%29.71 "HgN/A
11:20 PM55 °FPartly cloudy.21 mph88%29.71 "HgN/A
10:50 PM55 °FLight rain. Partly cloudy.21 mph88%29.71 "HgN/A
10:20 PM55 °FLight rain. Broken clouds.22 mph88%29.68 "HgN/A
9:50 PM54 °FLight rain. Broken clouds.20 mph94%29.68 "HgN/A
9:20 PM55 °FLight rain. Partly sunny.21 mph88%29.68 "HgN/A
8:50 PM55 °FLight rain. Partly sunny.21 mph88%29.65 "HgN/A
8:20 PM55 °FLight rain. Partly sunny.20 mph88%29.65 "HgN/A
7:50 PM55 °FLight rain. Partly sunny.20 mph88%29.65 "HgN/A
7:20 PM55 °FSprinkles. Partly sunny.16 mph88%29.65 "HgN/A
6:50 PM55 °FSprinkles. Partly sunny.16 mph94%29.65 "HgN/A
6:20 PM55 °FPartly sunny.17 mph88%29.65 "HgN/A
5:50 PM55 °FSprinkles. Partly sunny.21 mph82%29.65 "Hg5 mi
5:20 PM59 °FPartly sunny.22 mph72%29.65 "HgN/A
4:50 PM59 °FPartly sunny.20 mph77%29.65 "HgN/A
4:20 PM54 °FPartly sunny.16 mph88%29.65 "HgN/A
3:50 PM54 °FThunderstorms. Partly sunny.23 mph88%29.65 "HgN/A
3:20 PM61 °FSprinkles. Broken clouds.16 mph77%29.65 "HgN/A
2:50 PM59 °FThunderstorms. Broken clouds.15 mph72%29.65 "HgN/A
2:20 PM61 °FScattered clouds.13 mph77%29.65 "HgN/A
1:50 PM54 °FSprinkles. Partly sunny.7 mph88%29.65 "HgN/A
1:20 PM54 °FThunderstorms. Partly sunny.18 mph82%29.65 "HgN/A
12:50 PM61 °FThundershowers. Broken clouds.14 mph68%29.62 "HgN/A
12:20 PM57 °FScattered clouds.9 mph82%29.62 "HgN/A
11:50 AM54 °FSprinkles. Scattered clouds.14 mph82%29.65 "HgN/A
11:20 AM52 °FThunderstorms. Broken clouds.24 mph77%29.65 "Hg4 mi
10:50 AM61 °FPartly sunny.20 mph68%29.62 "HgN/A
10:20 AM61 °FBroken clouds.18 mph72%29.65 "HgN/A
9:50 AM59 °FBroken clouds.20 mph72%29.65 "HgN/A
9:20 AM59 °FBroken clouds.15 mph72%29.65 "HgN/A
8:50 AM57 °FBroken clouds.17 mph77%29.65 "HgN/A
8:20 AM57 °FBroken clouds.18 mph77%29.65 "HgN/A
7:50 AM57 °FBroken clouds.15 mph77%29.65 "HgN/A
7:20 AM57 °FPartly sunny.16 mph77%29.65 "HgN/A
6:50 AM57 °FPartly sunny.12 mph82%29.65 "HgN/A
6:20 AM57 °FPartly cloudy.14 mph82%29.65 "HgN/A
5:50 AM55 °FLight rain. Passing clouds.14 mph88%29.65 "HgN/A
5:20 AM55 °FPassing clouds.14 mph82%29.65 "HgN/A
4:50 AM55 °FPassing clouds.13 mph82%29.62 "HgN/A
4:20 AM55 °FPassing clouds.12 mph82%29.62 "HgN/A
3:50 AM55 °FPassing clouds.13 mph82%29.65 "HgN/A
3:20 AM55 °FPassing clouds.15 mph82%29.62 "HgN/A
Weather by CustomWeather, © 2015

See weather overviewHow to use our weather pages